Location: Lhota
(50.0887°N, 14.0116°E)
Time: 00:33:43
(UTC+00:00)

Meteor 2-10 Rocket - Pass Details

Date: 19 May 2025
Orbit: 733 x 881 km, 81.2° (Epoch: 22 June)

Event Time Altitude Azimuth Distance (km) Brightness Sun altitude
Rises 23:00:11 0° 349° (NNW) 3,439 8.4 -19.9°
Reaches altitude 10° 23:02:37 10° 352° (N) 2,515 7.4 -19.9°
Maximum altitude 23:08:21 67° 75° (ENE) 950 4.0 -19.9°
Enters shadow 23:11:11 31° 149° (SSE) 1,501 4.5 -19.9°
